Time,TemperatureF,DewpointF,PressureIn,WindDirection,WindDirectionDegrees,WindSpeedMPH,WindSpeedGustMPH,Humidity,HourlyPrecipIn,Conditions,Clouds,dailyrainin,SolarRadiationWatts/m^2,SoftwareType,DateUTC
2013-07-21 00:01:00,66.5,38.0,29.79,SW,221,0.0,0.0,35,0.00,,---,0.00,0.00,VWS V14.01,2013-07-21 07:01:00,
2013-07-21 00:06:00,66.2,36.3,29.79,SW,221,0.0,0.0,33,0.00,,---,0.00,0.00,VWS V14.01,2013-07-21 07:06:00,
2013-07-21 00:11:00,65.8,35.9,29.79,SW,221,0.0,1.0,33,0.00,,---,0.00,0.00,VWS V14.01,2013-07-21 07:11:00,
2013-07-21 00:16:00,65.6,35.8,29.79,SW,221,0.0,1.0,33,0.00,,---,0.00,0.00,VWS V14.01,2013-07-21 07:16:00,
2013-07-21 00:21:00,65.3,36.2,29.79,SW,221,0.0,2.0,34,0.00,,---,0.00,0.00,VWS V14.01,2013-07-21 07:21:00,
2013-07-21 00:26:00,64.9,35.9,29.79,SW,221,0.0,2.0,34,0.00,,---,0.00,0.00,VWS V14.01,2013-07-21 07:26:00,
2013-07-21 00:31:00,64.5,35.5,29.79,SW,221,0.0,1.0,34,0.00,,---,0.00,0.00,VWS V14.01,2013-07-21 07:31:00,
2013-07-21 00:36:00,64.0,35.1,29.79,SW,221,0.0,1.0,34,0.00,,---,0.00,0.00,VWS V14.01,2013-07-21 07:36:00,
2013-07-21 00:41:00,63.6,33.2,29.79,SW,221,0.0,1.0,32,0.00,,---,0.00,0.00,VWS V14.01,2013-07-21 07:41:00,
2013-07-21 00:46:00,63.2,31.3,29.79,SW,221,1.0,1.0,30,0.00,,---,0.00,0.00,VWS V14.01,2013-07-21 07:46:00,
2013-07-21 00:51:00,63.0,30.3,29.79,WNW,284,0.0,1.0,29,0.00,,---,0.00,0.00,VWS V14.01,2013-07-21 07:51:00,
2013-07-21 00:56:00,63.0,36.3,29.79,North,351,0.0,2.0,37,0.00,,---,0.00,0.00,VWS V14.01,2013-07-21 07:56:00,
2013-07-21 01:01:00,63.2,38.5,29.79,NNW,334,0.0,0.0,40,0.00,,---,0.00,0.00,VWS V14.01,2013-07-21 08:01:00,
2013-07-21 01:06:00,63.4,38.7,29.79,NNW,338,0.0,1.0,40,0.00,,---,0.00,0.00,VWS V14.01,2013-07-21 08:06:00,
2013-07-21 01:11:00,63.5,37.5,29.79,North,355,1.0,2.0,38,0.00,,---,0.00,0.00,VWS V14.01,2013-07-21 08:11:00,
2013-07-21 01:16:00,63.5,36.8,29.79,NW,305,1.0,3.0,37,0.00,,---,0.00,0.00,VWS V14.01,2013-07-21 08:16:00,
2013-07-21 01:21:00,63.5,34.7,29.78,WNW,300,2.0,3.0,34,0.00,,---,0.00,0.00,VWS V14.01,2013-07-21 08:21:00,
2013-07-21 01:26:00,63.6,33.2,29.78,WNW,286,2.0,3.0,32,0.00,,---,0.00,0.00,VWS V14.01,2013-07-21 08:26:00,
2013-07-21 01:31:00,63.6,31.6,29.78,WNW,296,2.0,2.0,30,0.00,,---,0.00,0.00,VWS V14.01,2013-07-21 08:31:00,
2013-07-21 01:36:00,63.5,31.5,29.78,WNW,296,0.0,3.0,30,0.00,,---,0.00,0.00,VWS V14.01,2013-07-21 08:36:00,
2013-07-21 01:41:00,62.8,30.9,29.79,WNW,296,1.0,3.0,30,0.00,,---,0.00,0.00,VWS V14.01,2013-07-21 08:41:00,
2013-07-21 01:46:00,62.3,29.7,29.78,WNW,296,0.0,3.0,29,0.00,,---,0.00,0.00,VWS V14.01,2013-07-21 08:46:00,
2013-07-21 01:51:00,62.3,28.8,29.78,West,280,0.0,3.0,28,0.00,,---,0.00,0.00,VWS V14.01,2013-07-21 08:51:00,
2013-07-21 01:56:00,62.5,29.8,29.78,WNW,298,0.0,3.0,29,0.00,,---,0.00,0.00,VWS V14.01,2013-07-21 08:56:00,
2013-07-21 02:01:00,62.5,27.2,29.78,WNW,302,0.0,3.0,26,0.00,,---,0.00,0.00,VWS V14.01,2013-07-21 09:01:00,
2013-07-21 02:06:00,62.2,26.0,29.78,WNW,288,2.0,3.0,25,0.00,,---,0.00,0.00,VWS V14.01,2013-07-21 09:06:00,
2013-07-21 02:11:00,61.7,25.5,29.78,WNW,299,0.0,3.0,25,0.00,,---,0.00,0.00,VWS V14.01,2013-07-21 09:11:00,
2013-07-21 02:16:00,61.4,27.1,29.78,NW,319,0.0,3.0,27,0.00,,---,0.00,0.00,VWS V14.01,2013-07-21 09:16:00,
2013-07-21 02:21:00,61.4,28.9,29.78,NW,326,0.0,3.0,29,0.00,,---,0.00,0.00,VWS V14.01,2013-07-21 09:21:00,
2013-07-21 02:26:00,61.5,30.6,29.78,NW,320,0.0,3.0,31,0.00,,---,0.00,0.00,VWS V14.01,2013-07-21 09:26:00,
2013-07-21 02:31:00,61.7,32.3,29.78,NNW,344,1.0,2.0,33,0.00,,---,0.00,0.00,VWS V14.01,2013-07-21 09:31:00,
2013-07-21 02:36:00,62.0,31.8,29.78,NNW,336,1.0,3.0,32,0.00,,---,0.00,0.00,VWS V14.01,2013-07-21 09:36:00,
2013-07-21 02:41:00,62.4,31.4,29.78,North,360,1.0,3.0,31,0.00,,---,0.00,0.00,VWS V14.01,2013-07-21 09:41:00,
2013-07-21 02:46:00,62.6,31.6,29.78,North,355,1.0,3.0,31,0.00,,---,0.00,0.00,VWS V14.01,2013-07-21 09:46:00,
2013-07-21 02:51:00,63.0,32.7,29.78,North,5,2.0,4.0,32,0.00,,---,0.00,0.00,VWS V14.01,2013-07-21 09:51:00,
2013-07-21 02:56:00,63.3,33.0,29.78,NNW,342,4.0,4.0,32,0.00,,---,0.00,0.00,VWS V14.01,2013-07-21 09:56:00,
2013-07-21 03:01:00,63.3,33.7,29.78,NNW,338,0.0,3.0,33,0.00,,---,0.00,0.00,VWS V14.01,2013-07-21 10:01:00,
2013-07-21 03:06:00,63.3,33.0,29.78,North,355,4.0,4.0,32,0.00,,---,0.00,0.00,VWS V14.01,2013-07-21 10:06:00,
2013-07-21 03:11:00,63.4,33.0,29.78,NNW,340,3.0,5.0,32,0.00,,---,0.00,0.00,VWS V14.01,2013-07-21 10:11:00,
2013-07-21 03:16:00,63.2,32.9,29.78,North,5,3.0,6.0,32,0.00,,---,0.00,0.00,VWS V14.01,2013-07-21 10:16:00,
2013-07-21 03:21:00,63.1,33.6,29.77,North,360,2.0,7.0,33,0.00,,---,0.00,0.00,VWS V14.01,2013-07-21 10:21:00,
2013-07-21 03:26:00,62.9,34.1,29.77,NE,34,6.0,8.0,34,0.00,,---,0.00,0.00,VWS V14.01,2013-07-21 10:26:00,
2013-07-21 03:31:00,62.7,34.7,29.78,North,360,3.0,3.0,35,0.00,,---,0.00,0.00,VWS V14.01,2013-07-21 10:31:00,
2013-07-21 03:36:00,62.2,34.2,29.77,NE,44,3.0,6.0,35,0.00,,---,0.00,0.00,VWS V14.01,2013-07-21 10:36:00,
2013-07-21 03:41:00,61.8,36.6,29.77,NNE,19,3.0,11.0,39,0.00,,---,0.00,0.00,VWS V14.01,2013-07-21 10:41:00,
2013-07-21 03:46:00,61.4,39.3,29.77,North,355,7.0,11.0,44,0.00,,---,0.00,0.00,VWS V14.01,2013-07-21 10:46:00,
2013-07-21 03:51:00,61.1,40.7,29.77,NNW,338,7.0,11.0,47,0.00,,---,0.00,0.00,VWS V14.01,2013-07-21 10:51:00,
2013-07-21 03:56:00,60.8,42.1,29.77,North,360,5.0,11.0,50,0.00,,---,0.00,0.00,VWS V14.01,2013-07-21 10:56:00,
2013-07-21 04:01:00,60.6,42.4,29.77,North,5,8.0,9.0,51,0.00,,---,0.00,0.00,VWS V14.01,2013-07-21 11:01:00,
2013-07-21 04:06:00,60.6,43.4,29.77,North,5,2.0,10.0,53,0.00,,---,0.00,0.00,VWS V14.01,2013-07-21 11:06:00,
2013-07-21 04:11:00,60.6,44.8,29.77,NNE,20,5.0,11.0,56,0.00,,---,0.00,0.00,VWS V14.01,2013-07-21 11:11:00,
2013-07-21 04:16:00,60.5,45.7,29.77,NNE,19,9.0,11.0,58,0.00,,---,0.00,0.00,VWS V14.01,2013-07-21 11:16:00,
2013-07-21 04:21:00,60.4,46.0,29.77,NNE,19,7.0,11.0,59,0.00,,---,0.00,0.00,VWS V14.01,2013-07-21 11:21:00,
2013-07-21 04:26:00,60.3,45.9,29.77,NNE,13,10.0,12.0,59,0.00,,---,0.00,0.00,VWS V14.01,2013-07-21 11:26:00,
2013-07-21 04:31:00,60.2,45.4,29.77,NE,34,5.0,8.0,58,0.00,,---,0.00,0.00,VWS V14.01,2013-07-21 11:31:00,
2013-07-21 04:36:00,60.1,45.3,29.77,NNW,330,12.0,12.0,58,0.00,,---,0.00,0.00,VWS V14.01,2013-07-21 11:36:00,
2013-07-21 04:41:00,60.0,44.3,29.77,NNW,348,3.0,13.0,56,0.00,,---,0.00,0.00,VWS V14.01,2013-07-21 11:41:00,
2013-07-21 04:46:00,60.0,42.8,29.77,NNW,339,4.0,15.0,53,0.00,,---,0.00,0.00,VWS V14.01,2013-07-21 11:46:00,
2013-07-21 04:51:00,60.2,42.5,29.77,NNW,338,3.0,15.0,52,0.00,,---,0.00,0.00,VWS V14.01,2013-07-21 11:51:00,
2013-07-21 04:56:00,60.2,42.5,29.77,NE,34,6.0,15.0,52,0.00,,---,0.00,0.00,VWS V14.01,2013-07-21 11:56:00,
2013-07-21 05:02:00,60.0,43.3,29.77,NNE,15,7.0,7.0,54,0.00,,---,0.00,0.00,VWS V14.01,2013-07-21 12:02:00,
2013-07-21 05:07:00,59.8,43.6,29.76,North,5,5.0,9.0,55,0.00,,---,0.00,0.00,VWS V14.01,2013-07-21 12:07:00,
2013-07-21 05:12:00,60.0,44.3,29.77,NNW,347,8.0,9.0,56,0.00,,---,0.00,0.00,VWS V14.01,2013-07-21 12:12:00,
2013-07-21 05:17:00,60.0,44.7,29.76,NNW,338,4.0,10.0,57,0.00,,---,0.00,0.00,VWS V14.01,2013-07-21 12:17:00,
2013-07-21 05:22:00,59.9,45.5,29.77,North,11,9.0,10.0,59,0.00,,---,0.00,0.00,VWS V14.01,2013-07-21 12:22:00,
2013-07-21 05:27:00,59.7,45.8,29.77,NNW,333,11.0,13.0,60,0.00,,---,0.00,0.00,VWS V14.01,2013-07-21 12:27:00,
2013-07-21 05:32:00,59.5,46.1,29.77,NW,326,10.0,10.0,61,0.00,,---,0.00,0.00,VWS V14.01,2013-07-21 12:32:00,
2013-07-21 05:37:00,59.2,46.6,29.77,North,9,5.0,10.0,63,0.00,,---,0.00,0.00,VWS V14.01,2013-07-21 12:37:00,
2013-07-21 05:42:00,58.9,46.8,29.77,North,355,4.0,10.0,64,0.00,,---,0.00,0.00,VWS V14.01,2013-07-21 12:42:00,
2013-07-21 05:47:00,58.8,47.1,29.77,NNE,13,6.0,10.0,65,0.00,,---,0.00,5.00,VWS V14.01,2013-07-21 12:47:00,
2013-07-21 05:52:00,58.7,47.0,29.77,NNE,26,7.0,10.0,65,0.00,,---,0.00,7.00,VWS V14.01,2013-07-21 12:52:00,
2013-07-21 05:57:00,58.7,47.4,29.77,North,355,9.0,10.0,66,0.00,,---,0.00,9.00,VWS V14.01,2013-07-21 12:57:00,
2013-07-21 06:02:00,58.8,47.5,29.77,NNE,19,4.0,8.0,66,0.00,,---,0.00,11.00,VWS V14.01,2013-07-21 13:02:00,
2013-07-21 06:07:00,58.9,47.6,29.77,NNE,17,7.0,11.0,66,0.00,,---,0.00,11.00,VWS V14.01,2013-07-21 13:07:00,
2013-07-21 06:12:00,58.9,48.0,29.77,North,355,4.0,11.0,67,0.00,,---,0.00,12.00,VWS V14.01,2013-07-21 13:12:00,
2013-07-21 06:17:00,58.8,48.3,29.77,North,5,5.0,16.0,68,0.00,,---,0.00,14.00,VWS V14.01,2013-07-21 13:17:00,
2013-07-21 06:22:00,58.6,48.9,29.77,NNE,14,5.0,16.0,70,0.00,,---,0.00,16.00,VWS V14.01,2013-07-21 13:22:00,
2013-07-21 06:27:00,58.2,48.8,29.77,North,355,3.0,16.0,71,0.00,,---,0.00,16.00,VWS V14.01,2013-07-21 13:27:00,
2013-07-21 06:32:00,58.0,48.7,29.77,NNE,22,6.0,10.0,71,0.00,,---,0.00,18.00,VWS V14.01,2013-07-21 13:32:00,
2013-07-21 06:37:00,57.9,48.9,29.77,NE,34,6.0,11.0,72,0.00,,---,0.00,18.00,VWS V14.01,2013-07-21 13:37:00,
2013-07-21 06:42:00,57.9,48.6,29.77,NNW,340,9.0,11.0,71,0.00,,---,0.00,19.00,VWS V14.01,2013-07-21 13:42:00,
2013-07-21 06:47:00,57.9,48.9,29.77,NW,310,5.0,11.0,72,0.00,,---,0.00,19.00,VWS V14.01,2013-07-21 13:47:00,
2013-07-21 06:52:00,58.0,49.0,29.77,North,5,11.0,11.0,72,0.00,,---,0.00,21.00,VWS V14.01,2013-07-21 13:52:00,
2013-07-21 06:57:00,58.0,48.7,29.78,NNE,22,4.0,11.0,71,0.00,,---,0.00,21.00,VWS V14.01,2013-07-21 13:57:00,
2013-07-21 07:02:00,58.0,48.7,29.78,North,5,8.0,10.0,71,0.00,,---,0.00,21.00,VWS V14.01,2013-07-21 14:02:00,
2013-07-21 07:07:00,58.0,48.7,29.78,NNE,25,8.0,11.0,71,0.00,,---,0.00,23.00,VWS V14.01,2013-07-21 14:07:00,
2013-07-21 07:12:00,58.1,48.8,29.78,NNE,26,10.0,11.0,71,0.00,,---,0.00,25.00,VWS V14.01,2013-07-21 14:12:00,
2013-07-21 07:17:00,58.2,48.5,29.78,NNW,343,7.0,11.0,70,0.00,,---,0.00,26.00,VWS V14.01,2013-07-21 14:17:00,
2013-07-21 07:22:00,58.5,48.4,29.78,North,5,5.0,11.0,69,0.00,,---,0.00,70.00,VWS V14.01,2013-07-21 14:22:00,
2013-07-21 07:27:00,58.8,48.3,29.77,NNE,12,5.0,12.0,68,0.00,,---,0.00,25.00,VWS V14.01,2013-07-21 14:27:00,
2013-07-21 07:32:00,59.0,48.9,29.77,NNE,13,3.0,6.0,69,0.00,,---,0.00,25.00,VWS V14.01,2013-07-21 14:32:00,
2013-07-21 07:37:00,59.2,49.0,29.77,North,360,3.0,7.0,69,0.00,,---,0.00,26.00,VWS V14.01,2013-07-21 14:37:00,
2013-07-21 07:42:00,59.3,48.4,29.77,NNE,28,2.0,8.0,67,0.00,,---,0.00,26.00,VWS V14.01,2013-07-21 14:42:00,
2013-07-21 07:47:00,59.6,48.2,29.77,NNW,339,1.0,8.0,66,0.00,,---,0.00,28.00,VWS V14.01,2013-07-21 14:47:00,
2013-07-21 07:52:00,60.0,49.4,29.77,North,355,2.0,8.0,68,0.00,,---,0.00,70.00,VWS V14.01,2013-07-21 14:52:00,
2013-07-21 07:57:00,60.3,48.5,29.77,North,5,5.0,8.0,65,0.00,,---,0.00,51.00,VWS V14.01,2013-07-21 14:57:00,
2013-07-21 08:02:00,60.8,49.4,29.77,North,5,2.0,6.0,66,0.00,,---,0.00,47.00,VWS V14.01,2013-07-21 15:02:00,
2013-07-21 08:07:00,61.1,48.4,29.77,NE,50,6.0,8.0,63,0.00,,---,0.00,278.00,VWS V14.01,2013-07-21 15:07:00,
2013-07-21 08:12:00,61.3,47.8,29.77,NNE,28,2.0,8.0,61,0.00,,---,0.00,374.00,VWS V14.01,2013-07-21 15:12:00,
2013-07-21 08:17:00,61.3,48.2,29.77,NNW,347,3.0,8.0,62,0.00,,---,0.00,390.00,VWS V14.01,2013-07-21 15:17:00,
2013-07-21 08:22:00,61.7,48.1,29.78,North,355,1.0,10.0,61,0.00,,---,0.00,406.00,VWS V14.01,2013-07-21 15:22:00,
2013-07-21 08:27:00,62.3,47.8,29.78,NE,52,4.0,10.0,59,0.00,,---,0.00,422.00,VWS V14.01,2013-07-21 15:27:00,
2013-07-21 08:32:00,62.9,47.9,29.78,NE,38,3.0,8.0,58,0.00,,---,0.00,251.00,VWS V14.01,2013-07-21 15:32:00,
2013-07-21 08:37:00,63.5,48.5,29.78,NE,42,5.0,8.0,58,0.00,,---,0.00,214.00,VWS V14.01,2013-07-21 15:37:00,
2013-07-21 08:42:00,64.1,47.6,29.78,NNE,32,3.0,8.0,55,0.00,,---,0.00,179.00,VWS V14.01,2013-07-21 15:42:00,
2013-07-21 08:47:00,64.7,48.2,29.78,NNE,15,5.0,8.0,55,0.00,,---,0.00,476.00,VWS V14.01,2013-07-21 15:47:00,
2013-07-21 08:52:00,65.2,47.7,29.78,NNE,26,6.0,9.0,53,0.00,,---,0.00,445.00,VWS V14.01,2013-07-21 15:52:00,
2013-07-21 08:57:00,65.7,47.1,29.78,NNE,24,2.0,9.0,51,0.00,,---,0.00,40.00,VWS V14.01,2013-07-21 15:57:00,
2013-07-21 09:02:00,66.5,47.3,29.78,North,360,3.0,8.0,50,0.00,,---,0.00,67.00,VWS V14.01,2013-07-21 16:02:00,
2013-07-21 09:07:00,67.2,47.4,29.78,NNE,22,2.0,8.0,49,0.00,,---,0.00,83.00,VWS V14.01,2013-07-21 16:07:00,
2013-07-21 09:12:00,67.6,47.2,29.78,NNE,23,3.0,8.0,48,0.00,,---,0.00,44.00,VWS V14.01,2013-07-21 16:12:00,
2013-07-21 09:17:00,67.7,46.2,29.78,North,5,6.0,8.0,46,0.00,,---,0.00,56.00,VWS V14.01,2013-07-21 16:17:00,
2013-07-21 09:22:00,68.0,47.6,29.78,NNE,16,3.0,8.0,48,0.00,,---,0.00,44.00,VWS V14.01,2013-07-21 16:22:00,
2013-07-21 09:27:00,68.6,47.6,29.78,North,5,4.0,10.0,47,0.00,,---,0.00,364.00,VWS V14.01,2013-07-21 16:27:00,
2013-07-21 09:32:00,69.5,46.7,29.78,NE,46,4.0,5.0,44,0.00,,---,0.00,613.00,VWS V14.01,2013-07-21 16:32:00,
2013-07-21 09:37:00,69.9,46.4,29.77,NE,45,6.0,10.0,43,0.00,,---,0.00,629.00,VWS V14.01,2013-07-21 16:37:00,
2013-07-21 09:42:00,70.2,46.1,29.77,ENE,76,7.0,10.0,42,0.00,,---,0.00,643.00,VWS V14.01,2013-07-21 16:42:00,
2013-07-21 09:47:00,70.4,46.9,29.77,ENE,65,3.0,10.0,43,0.00,,---,0.00,656.00,VWS V14.01,2013-07-21 16:47:00,
2013-07-21 09:52:00,70.8,46.0,29.77,ENE,61,9.0,10.0,41,0.00,,---,0.00,666.00,VWS V14.01,2013-07-21 16:52:00,
2013-07-21 09:57:00,71.2,45.7,29.77,NNW,346,5.0,10.0,40,0.00,,---,0.00,682.00,VWS V14.01,2013-07-21 16:57:00,
2013-07-21 10:02:00,71.7,44.1,29.77,NE,47,3.0,6.0,37,0.00,,---,0.00,696.00,VWS V14.01,2013-07-21 17:02:00,
2013-07-21 10:07:00,72.2,43.8,29.77,North,5,4.0,7.0,36,0.00,,---,0.00,707.00,VWS V14.01,2013-07-21 17:07:00,
2013-07-21 10:12:00,73.0,42.2,29.77,North,5,3.0,8.0,33,0.00,,---,0.00,719.00,VWS V14.01,2013-07-21 17:12:00,
2013-07-21 10:17:00,73.6,40.3,29.77,North,5,1.0,8.0,30,0.00,,---,0.00,731.00,VWS V14.01,2013-07-21 17:17:00,
2013-07-21 10:22:00,74.5,39.3,29.77,NE,51,2.0,8.0,28,0.00,,---,0.00,744.00,VWS V14.01,2013-07-21 17:22:00,
2013-07-21 10:27:00,75.1,35.9,29.77,North,355,1.0,8.0,24,0.00,,---,0.00,754.00,VWS V14.01,2013-07-21 17:27:00,
2013-07-21 10:32:00,75.5,36.2,29.77,NNE,22,1.0,4.0,24,0.00,,---,0.00,765.00,VWS V14.01,2013-07-21 17:32:00,
2013-07-21 10:37:00,75.8,35.4,29.77,North,11,3.0,5.0,23,0.00,,---,0.00,773.00,VWS V14.01,2013-07-21 17:37:00,
2013-07-21 10:42:00,76.2,35.7,29.77,North,355,0.0,5.0,23,0.00,,---,0.00,786.00,VWS V14.01,2013-07-21 17:42:00,
2013-07-21 10:47:00,76.6,37.1,29.77,NNE,24,3.0,7.0,24,0.00,,---,0.00,798.00,VWS V14.01,2013-07-21 17:47:00,
2013-07-21 10:52:00,76.9,34.0,29.77,NE,34,0.0,7.0,21,0.00,,---,0.00,805.00,VWS V14.01,2013-07-21 17:52:00,
2013-07-21 10:57:00,77.3,36.7,29.77,NE,46,2.0,7.0,23,0.00,,---,0.00,814.00,VWS V14.01,2013-07-21 17:57:00,
2013-07-21 11:02:00,77.9,37.2,29.77,NNE,27,2.0,3.0,23,0.00,,---,0.00,824.00,VWS V14.01,2013-07-21 18:02:00,
2013-07-21 11:07:00,78.7,38.9,29.76,North,5,3.0,3.0,24,0.00,,---,0.00,835.00,VWS V14.01,2013-07-21 18:07:00,
2013-07-21 11:12:00,79.4,33.6,29.76,NE,38,1.0,4.0,19,0.00,,---,0.00,844.00,VWS V14.01,2013-07-21 18:12:00,
2013-07-21 11:17:00,79.8,32.6,29.76,ENE,63,0.0,7.0,18,0.00,,---,0.00,853.00,VWS V14.01,2013-07-21 18:17:00,
2013-07-21 11:22:00,80.0,34.1,29.76,West,271,2.0,7.0,19,0.00,,---,0.00,861.00,VWS V14.01,2013-07-21 18:22:00,
2013-07-21 11:27:00,80.4,35.7,29.76,East,93,0.0,7.0,20,0.00,,---,0.00,868.00,VWS V14.01,2013-07-21 18:27:00,
2013-07-21 11:32:00,80.7,30.4,29.76,ESE,111,0.0,1.0,16,0.00,,---,0.00,877.00,VWS V14.01,2013-07-21 18:32:00,
2013-07-21 11:37:00,81.1,29.1,29.76,NE,51,0.0,1.0,15,0.00,,---,0.00,884.00,VWS V14.01,2013-07-21 18:37:00,
2013-07-21 11:42:00,81.4,33.9,29.76,NE,42,2.0,2.0,18,0.00,,---,0.00,896.00,VWS V14.01,2013-07-21 18:42:00,
2013-07-21 11:47:00,81.9,35.6,29.76,NE,38,0.0,2.0,19,0.00,,---,0.00,900.00,VWS V14.01,2013-07-21 18:47:00,
2013-07-21 11:52:00,82.5,24.8,29.76,NNE,18,0.0,5.0,12,0.00,,---,0.00,912.00,VWS V14.01,2013-07-21 18:52:00,
2013-07-21 11:57:00,83.0,25.2,29.76,NNE,15,1.0,5.0,12,0.00,,---,0.00,914.00,VWS V14.01,2013-07-21 18:57:00,
2013-07-21 12:02:00,83.8,13.2,29.76,West,281,0.0,6.0,7,0.00,,---,0.00,914.00,VWS V14.01,2013-07-21 19:02:00,
2013-07-21 12:07:00,84.6,22.1,29.76,NW,305,0.0,6.0,10,0.00,,---,0.00,919.00,VWS V14.01,2013-07-21 19:07:00,
2013-07-21 12:12:00,85.1,28.8,29.76,SSE,152,0.0,6.0,13,0.00,,---,0.00,925.00,VWS V14.01,2013-07-21 19:12:00,
2013-07-21 12:17:00,85.5,20.3,29.76,WNW,298,3.0,6.0,9,0.00,,---,0.00,928.00,VWS V14.01,2013-07-21 19:17:00,
2013-07-21 12:22:00,85.9,29.4,29.76,WSW,250,0.0,6.0,13,0.00,,---,0.00,932.00,VWS V14.01,2013-07-21 19:22:00,
2013-07-21 12:27:00,86.4,21.0,29.76,WSW,254,0.0,6.0,9,0.00,,---,0.00,935.00,VWS V14.01,2013-07-21 19:27:00,
2013-07-21 12:32:00,86.5,27.9,29.76,SSE,165,0.0,1.0,12,0.00,,---,0.00,940.00,VWS V14.01,2013-07-21 19:32:00,
2013-07-21 12:37:00,86.6,36.6,29.76,South,172,1.0,3.0,17,0.00,,---,0.00,942.00,VWS V14.01,2013-07-21 19:37:00,
2013-07-21 12:42:00,86.8,31.9,29.75,SSE,150,0.0,3.0,14,0.00,,---,0.00,946.00,VWS V14.01,2013-07-21 19:42:00,
2013-07-21 12:47:00,87.1,26.3,29.75,WSW,246,4.0,5.0,11,0.00,,---,0.00,946.00,VWS V14.01,2013-07-21 19:47:00,
2013-07-21 12:52:00,87.5,28.7,29.75,South,182,0.0,5.0,12,0.00,,---,0.00,947.00,VWS V14.01,2013-07-21 19:52:00,
2013-07-21 12:57:00,88.1,27.0,29.75,SW,226,2.0,10.0,11,0.00,,---,0.00,949.00,VWS V14.01,2013-07-21 19:57:00,
2013-07-21 13:02:00,88.6,29.5,29.75,SE,124,4.0,4.0,12,0.00,,---,0.00,951.00,VWS V14.01,2013-07-21 20:02:00,
2013-07-21 13:07:00,89.2,27.9,29.75,SSW,209,3.0,6.0,11,0.00,,---,0.00,951.00,VWS V14.01,2013-07-21 20:07:00,
2013-07-21 13:12:00,89.6,25.9,29.75,SSE,149,2.0,6.0,10,0.00,,---,0.00,949.00,VWS V14.01,2013-07-21 20:12:00,
2013-07-21 13:17:00,89.9,28.4,29.75,SW,232,3.0,7.0,11,0.00,,---,0.00,951.00,VWS V14.01,2013-07-21 20:17:00,
2013-07-21 13:22:00,90.0,34.5,29.75,SW,234,0.0,7.0,14,0.00,,---,0.00,951.00,VWS V14.01,2013-07-21 20:22:00,
2013-07-21 13:27:00,90.2,26.3,29.75,SW,220,4.0,7.0,10,0.00,,---,0.00,951.00,VWS V14.01,2013-07-21 20:27:00,
2013-07-21 13:32:00,90.3,32.8,29.74,South,181,0.0,4.0,13,0.00,,---,0.00,947.00,VWS V14.01,2013-07-21 20:32:00,
2013-07-21 13:37:00,90.7,31.2,29.74,South,169,0.0,5.0,12,0.00,,---,0.00,951.00,VWS V14.01,2013-07-21 20:37:00,
2013-07-21 13:42:00,91.3,27.2,29.74,SSW,211,1.0,7.0,10,0.00,,---,0.00,949.00,VWS V14.01,2013-07-21 20:42:00,
2013-07-21 13:47:00,91.9,37.7,29.74,SSE,156,1.0,7.0,15,0.00,,---,0.00,944.00,VWS V14.01,2013-07-21 20:47:00,
2013-07-21 13:52:00,92.3,25.4,29.74,South,170,0.0,7.0,9,0.00,,---,0.00,940.00,VWS V14.01,2013-07-21 20:52:00,
2013-07-21 13:57:00,92.6,25.6,29.74,WSW,244,1.0,7.0,9,0.00,,---,0.00,935.00,VWS V14.01,2013-07-21 20:57:00,
2013-07-21 14:02:00,92.8,36.7,29.74,SSW,194,1.0,3.0,14,0.00,,---,0.00,933.00,VWS V14.01,2013-07-21 21:02:00,
2013-07-21 14:07:00,93.2,33.1,29.74,SSE,155,0.0,5.0,12,0.00,,---,0.00,928.00,VWS V14.01,2013-07-21 21:07:00,
2013-07-21 14:12:00,93.6,23.5,29.74,WSW,256,0.0,9.0,8,0.00,,---,0.00,925.00,VWS V14.01,2013-07-21 21:12:00,
2013-07-21 14:17:00,93.9,23.8,29.74,SSE,161,4.0,9.0,8,0.00,,---,0.00,919.00,VWS V14.01,2013-07-21 21:17:00,
2013-07-21 14:22:00,94.3,20.9,29.74,SW,231,0.0,9.0,7,0.00,,---,0.00,919.00,VWS V14.01,2013-07-21 21:22:00,
2013-07-21 14:27:00,93.9,23.8,29.74,SW,225,2.0,9.0,8,0.00,,---,0.00,919.00,VWS V14.01,2013-07-21 21:27:00,
2013-07-21 14:32:00,94.2,20.8,29.74,SSW,209,4.0,7.0,7,0.00,,---,0.00,919.00,VWS V14.01,2013-07-21 21:32:00,
2013-07-21 14:37:00,93.9,17.0,29.74,SSW,202,3.0,8.0,6,0.00,,---,0.00,919.00,VWS V14.01,2013-07-21 21:37:00,
2013-07-21 14:42:00,93.5,20.3,29.74,South,187,3.0,8.0,7,0.00,,---,0.00,919.00,VWS V14.01,2013-07-21 21:42:00,
2013-07-21 14:47:00,94.1,17.1,29.74,SSE,165,5.0,8.0,6,0.00,,---,0.00,919.00,VWS V14.01,2013-07-21 21:47:00,
2013-07-21 14:52:00,94.6,21.1,29.74,South,178,2.0,8.0,7,0.00,,---,0.00,919.00,VWS V14.01,2013-07-21 21:52:00,
2013-07-21 14:57:00,95.1,21.5,29.74,SSE,151,3.0,8.0,7,0.00,,---,0.00,919.00,VWS V14.01,2013-07-21 21:57:00,
2013-07-21 15:02:00,94.9,17.7,29.74,SSW,194,0.0,3.0,6,0.00,,---,0.00,919.00,VWS V14.01,2013-07-21 22:02:00,
2013-07-21 15:07:00,95.3,18.0,29.73,West,263,0.0,8.0,6,0.00,,---,0.00,919.00,VWS V14.01,2013-07-21 22:07:00,
2013-07-21 15:12:00,95.6,18.2,29.73,SE,146,6.0,10.0,6,0.00,,---,0.00,919.00,VWS V14.01,2013-07-21 22:12:00,
2013-07-21 15:17:00,95.9,18.4,29.73,ESE,117,5.0,10.0,6,0.00,,---,0.00,919.00,VWS V14.01,2013-07-21 22:17:00,
2013-07-21 15:22:00,95.8,22.0,29.73,East,86,1.0,10.0,7,0.00,,---,0.00,919.00,VWS V14.01,2013-07-21 22:22:00,
2013-07-21 15:27:00,95.9,14.2,29.73,WSW,250,3.0,10.0,5,0.00,,---,0.00,919.00,VWS V14.01,2013-07-21 22:27:00,
2013-07-21 15:32:00,95.7,27.9,29.74,SE,144,5.0,7.0,9,0.00,,---,0.00,919.00,VWS V14.01,2013-07-21 22:32:00,
2013-07-21 15:37:00,96.0,22.1,29.73,WSW,247,2.0,10.0,7,0.00,,---,0.00,919.00,VWS V14.01,2013-07-21 22:37:00,
2013-07-21 15:42:00,96.2,22.3,29.73,SSW,213,4.0,10.0,7,0.00,,---,0.00,919.00,VWS V14.01,2013-07-21 22:42:00,
2013-07-21 15:47:00,96.2,22.3,29.73,South,176,1.0,10.0,7,0.00,,---,0.00,919.00,VWS V14.01,2013-07-21 22:47:00,
2013-07-21 15:52:00,96.1,30.8,29.73,South,183,3.0,10.0,10,0.00,,---,0.00,919.00,VWS V14.01,2013-07-21 22:52:00,
2013-07-21 15:57:00,96.0,25.3,29.73,South,191,8.0,11.0,8,0.00,,---,0.00,919.00,VWS V14.01,2013-07-21 22:57:00,
2013-07-21 16:02:00,95.4,30.3,29.73,SSE,160,6.0,7.0,10,0.00,,---,0.00,919.00,VWS V14.01,2013-07-21 23:02:00,
2013-07-21 16:07:00,95.3,21.6,29.73,South,171,7.0,12.0,7,0.00,,---,0.00,919.00,VWS V14.01,2013-07-21 23:07:00,
2013-07-21 16:12:00,94.9,24.5,29.73,SSE,163,5.0,12.0,8,0.00,,---,0.00,919.00,VWS V14.01,2013-07-21 23:12:00,
2013-07-21 16:17:00,95.1,32.4,29.73,SE,130,4.0,12.0,11,0.00,,---,0.00,919.00,VWS V14.01,2013-07-21 23:17:00,
2013-07-21 16:22:00,95.2,21.5,29.73,South,170,6.0,13.0,7,0.00,,---,0.00,919.00,VWS V14.01,2013-07-21 23:22:00,
2013-07-21 16:27:00,94.9,24.5,29.73,South,172,8.0,14.0,8,0.00,,---,0.00,919.00,VWS V14.01,2013-07-21 23:27:00,
2013-07-21 16:31:00,94.9,24.5,29.73,SSW,207,3.0,10.0,8,0.00,,---,0.00,919.00,VWS V14.01,2013-07-21 23:31:00,
2013-07-21 16:36:00,94.6,24.3,29.72,SSW,206,4.0,10.0,8,0.00,,---,0.00,919.00,VWS V14.01,2013-07-21 23:36:00,
2013-07-21 16:41:00,94.7,27.2,29.73,SW,223,5.0,11.0,9,0.00,,---,0.00,919.00,VWS V14.01,2013-07-21 23:41:00,
2013-07-21 16:46:00,94.5,27.0,29.73,SW,231,6.0,12.0,9,0.00,,---,0.00,919.00,VWS V14.01,2013-07-21 23:46:00,
2013-07-21 16:51:00,94.1,31.6,29.72,SW,222,5.0,12.0,11,0.00,,---,0.00,919.00,VWS V14.01,2013-07-21 23:51:00,
2013-07-21 16:56:00,93.2,28.6,29.72,SSE,147,10.0,12.0,10,0.00,,---,0.00,919.00,VWS V14.01,2013-07-21 23:56:00,
2013-07-21 17:01:00,93.5,28.8,29.72,SSE,153,5.0,6.0,10,0.00,,---,0.00,919.00,VWS V14.01,2013-07-22 00:01:00,
2013-07-21 17:06:00,94.2,29.4,29.72,SSE,155,3.0,13.0,10,0.00,,---,0.00,919.00,VWS V14.01,2013-07-22 00:06:00,
2013-07-21 17:11:00,94.7,29.7,29.73,SSE,165,5.0,13.0,10,0.00,,---,0.00,919.00,VWS V14.01,2013-07-22 00:11:00,
2013-07-21 17:16:00,94.5,29.6,29.73,SE,146,6.0,13.0,10,0.00,,---,0.00,919.00,VWS V14.01,2013-07-22 00:16:00,
2013-07-21 17:21:00,93.5,33.3,29.72,SW,235,7.0,13.0,12,0.00,,---,0.00,919.00,VWS V14.01,2013-07-22 00:21:00,
2013-07-21 17:26:00,93.0,30.8,29.72,SSE,157,4.0,13.0,11,0.00,,---,0.00,919.00,VWS V14.01,2013-07-22 00:26:00,
2013-07-21 17:31:00,93.4,33.3,29.72,South,173,3.0,8.0,12,0.00,,---,0.00,919.00,VWS V14.01,2013-07-22 00:31:00,
2013-07-21 17:36:00,93.7,29.0,29.72,SW,222,6.0,12.0,10,0.00,,---,0.00,919.00,VWS V14.01,2013-07-22 00:36:00,
2013-07-21 17:41:00,93.1,30.9,29.72,SSE,147,2.0,12.0,11,0.00,,---,0.00,919.00,VWS V14.01,2013-07-22 00:41:00,
2013-07-21 17:46:00,93.4,31.1,29.72,South,188,9.0,12.0,11,0.00,,---,0.00,919.00,VWS V14.01,2013-07-22 00:46:00,
2013-07-21 17:51:00,93.3,33.2,29.72,SSE,167,9.0,12.0,12,0.00,,---,0.00,919.00,VWS V14.01,2013-07-22 00:51:00,
2013-07-21 17:56:00,93.6,37.3,29.72,South,180,6.0,12.0,14,0.00,,---,0.00,919.00,VWS V14.01,2013-07-22 00:56:00,
2013-07-21 18:01:00,93.3,33.2,29.72,SSE,161,6.0,8.0,12,0.00,,---,0.00,919.00,VWS V14.01,2013-07-22 01:01:00,
2013-07-21 18:06:00,91.9,36.0,29.72,SW,223,5.0,8.0,14,0.00,,---,0.00,919.00,VWS V14.01,2013-07-22 01:06:00,
2013-07-21 18:11:00,91.4,37.3,29.72,South,184,4.0,8.0,15,0.00,,---,0.00,919.00,VWS V14.01,2013-07-22 01:11:00,
2013-07-21 18:16:00,91.2,38.8,29.72,SW,231,6.0,8.0,16,0.00,,---,0.00,919.00,VWS V14.01,2013-07-22 01:16:00,
2013-07-21 18:21:00,90.2,38.0,29.72,South,173,10.0,10.0,16,0.00,,---,0.00,919.00,VWS V14.01,2013-07-22 01:21:00,
2013-07-21 18:26:00,89.8,40.7,29.72,WSW,254,4.0,10.0,18,0.00,,---,0.00,919.00,VWS V14.01,2013-07-22 01:26:00,
2013-07-21 18:31:00,89.6,40.5,29.72,SW,235,5.0,8.0,18,0.00,,---,0.00,919.00,VWS V14.01,2013-07-22 01:31:00,
2013-07-21 18:36:00,88.6,38.2,29.72,SSW,208,2.0,9.0,17,0.00,,---,0.00,919.00,VWS V14.01,2013-07-22 01:36:00,
2013-07-21 18:41:00,88.6,41.1,29.72,WSW,242,3.0,9.0,19,0.00,,---,0.00,919.00,VWS V14.01,2013-07-22 01:41:00,
2013-07-21 18:46:00,88.1,40.7,29.72,WSW,237,2.0,10.0,19,0.00,,---,0.00,919.00,VWS V14.01,2013-07-22 01:46:00,
2013-07-21 18:51:00,88.0,40.6,29.72,SW,223,3.0,10.0,19,0.00,,---,0.00,919.00,VWS V14.01,2013-07-22 01:51:00,
2013-07-21 18:56:00,87.4,41.5,29.72,South,184,5.0,11.0,20,0.00,,---,0.00,919.00,VWS V14.01,2013-07-22 01:56:00,
2013-07-21 19:01:00,87.3,40.0,29.73,SW,219,6.0,7.0,19,0.00,,---,0.00,919.00,VWS V14.01,2013-07-22 02:01:00,
2013-07-21 19:06:00,86.8,41.0,29.73,SSW,211,3.0,9.0,20,0.00,,---,0.00,919.00,VWS V14.01,2013-07-22 02:06:00,
2013-07-21 19:11:00,87.1,41.2,29.73,SW,220,3.0,9.0,20,0.00,,---,0.00,919.00,VWS V14.01,2013-07-22 02:11:00,
2013-07-21 19:16:00,86.8,41.0,29.73,SW,219,5.0,10.0,20,0.00,,---,0.00,919.00,VWS V14.01,2013-07-22 02:16:00,
2013-07-21 19:21:00,86.2,40.5,29.74,SW,229,6.0,10.0,20,0.00,,---,0.00,919.00,VWS V14.01,2013-07-22 02:21:00,
2013-07-21 19:26:00,85.8,41.4,29.73,SW,216,4.0,10.0,21,0.00,,---,0.00,919.00,VWS V14.01,2013-07-22 02:26:00,